• In Germany
  • List of Countries
  • For 7 days
  • Water Temperature
  • Satellite Maps
  • Weather Map
  • Weather Widgets
  • user-avatar
    Login

    Hourly Weather Gjirokaster

    Today, 20 October, Friday

    Time Temperature Precipitation Wind Pressure Humidity
    00:00 +10°C° 0 mm 1 mps 653 mmHg 87%
    01:00 +9°C° 0 mm 1 mps 654 mmHg 87%
    02:00 +9°C° 0 mm 1 mps 653 mmHg 87%
    03:00 +9°C° 0 mm 1 mps 653 mmHg 87%
    04:00 +8°C° 0 mm 2 mps 653 mmHg 87%
    05:00 +8°C° 0 mm 2 mps 653 mmHg 84%
    06:00 +9°C° 0 mm 2 mps 654 mmHg 81%
    07:00 +10°C° 0 mm 2 mps 654 mmHg 75%
    08:00 +12°C° 0 mm 2 mps 654 mmHg 67%
    09:00 +14°C° 0 mm 2 mps 655 mmHg 59%
    10:00 +16°C° 0 mm 2 mps 656 mmHg 52%
    11:00 +17°C° 0 mm 2 mps 656 mmHg 49%
    12:00 +17°C° 0 mm 2 mps 656 mmHg 47%
    13:00 +18°C° 0 mm 2 mps 655 mmHg 46%
    14:00 +17°C° 0 mm 2 mps 655 mmHg 51%
    15:00 +16°C° 0 mm 2 mps 655 mmHg 55%
    16:00 +16°C° 0 mm 2 mps 655 mmHg 60%
    17:00 +14°C° 0 mm 1 mps 655 mmHg 68%
    18:00 +13°C° 0 mm 1 mps 655 mmHg 77%
    19:00 +10°C° 0 mm 0 mps 654 mmHg 85%
    20:00 +11°C° 0 mm 1 mps 654 mmHg 86%
    21:00 +10°C° 0 mm 1 mps 654 mmHg 88%
    22:00 +10°C° 0 mm 1 mps 654 mmHg 89%
    23:00 +10°C° 0 mm 1 mps 654 mmHg 89%

    Tomorrow, 21 October, Saturday

    Time Temperature Precipitation Wind Pressure Humidity
    00:00 +9°C° 0 mm 1 mps 654 mmHg 89%
    01:00 +9°C° 0 mm 1 mps 654 mmHg 89%
    02:00 +9°C° 0 mm 1 mps 654 mmHg 88%
    03:00 +9°C° 0 mm 1 mps 654 mmHg 88%
    04:00 +8°C° 0 mm 1 mps 654 mmHg 87%
    05:00 +9°C° 0 mm 1 mps 654 mmHg 84%
    06:00 +9°C° 0 mm 1 mps 654 mmHg 81%
    07:00 +10°C° 0 mm 1 mps 654 mmHg 78%
    08:00 +12°C° 0 mm 1 mps 655 mmHg 68%
    09:00 +14°C° 0 mm 2 mps 655 mmHg 58%
    10:00 +16°C° 0 mm 2 mps 656 mmHg 48%
    11:00 +17°C° 0 mm 2 mps 656 mmHg 46%
    12:00 +17°C° 0 mm 3 mps 656 mmHg 44%
    13:00 +18°C° 0 mm 3 mps 655 mmHg 42%
    14:00 +17°C° 0 mm 3 mps 655 mmHg 47%
    15:00 +16°C° 0 mm 3 mps 655 mmHg 51%
    16:00 +14°C° 0 mm 3 mps 654 mmHg 56%
    17:00 +13°C° 0 mm 3 mps 654 mmHg 63%
    18:00 +11°C° 0 mm 3 mps 654 mmHg 71%
    19:00 +10°C° 0 mm 3 mps 653 mmHg 79%
    20:00 +9°C° 0 mm 2 mps 653 mmHg 80%
    21:00 +9°C° 0 mm 2 mps 653 mmHg 81%
    22:00 +8°C° 0 mm 2 mps 653 mmHg 82%
    23:00 +8°C° 0 mm 2 mps 653 mmHg 82%

    Day after tomorrow, 22 October, Sunday

    Time Temperature Precipitation Wind Pressure Humidity
    00:00 +8°C° 0 mm 2 mps 653 mmHg 81%
    01:00 +7°C° 0 mm 2 mps 653 mmHg 80%
    02:00 +7°C° 0 mm 2 mps 653 mmHg 78%
    03:00 +7°C° 0 mm 2 mps 652 mmHg 75%
    04:00 +6°C° 0 mm 2 mps 652 mmHg 73%
    05:00 +7°C° 0 mm 2 mps 652 mmHg 69%
    06:00 +7°C° 0 mm 2 mps 652 mmHg 65%
    07:00 +8°C° 0 mm 2 mps 652 mmHg 61%
    08:00 +10°C° 0 mm 2 mps 653 mmHg 56%
    09:00 +13°C° 0 mm 2 mps 653 mmHg 50%
    10:00 +16°C° 0 mm 2 mps 654 mmHg 45%
    11:00 +16°C° 0 mm 3 mps 654 mmHg 45%
    12:00 +17°C° 0 mm 3 mps 653 mmHg 45%
    13:00 +18°C° 0 mm 4 mps 653 mmHg 45%
    14:00 +17°C° 0 mm 3 mps 653 mmHg 49%
    15:00 +16°C° 0 mm 3 mps 652 mmHg 53%
    16:00 +14°C° 0 mm 3 mps 652 mmHg 56%
    17:00 +14°C° 0 mm 2 mps 651 mmHg 63%
    18:00 +12°C° 0 mm 2 mps 651 mmHg 69%
    19:00 +11°C° 0 mm 1 mps 651 mmHg 75%
    20:00 +11°C° 0 mm 1 mps 651 mmHg 76%
    21:00 +10°C° 0 mm 1 mps 651 mmHg 76%
    22:00 +10°C° 0 mm 1 mps 650 mmHg 76%
    23:00 +10°C° 0 mm 1 mps 650 mmHg 77%

    23 October, Monday

    Time Temperature Precipitation Wind Pressure Humidity
    00:00 +9°C° 0 mm 2 mps 650 mmHg 78%
    01:00 +8°C° 0 mm 2 mps 649 mmHg 78%
    02:00 +8°C° 0.1 mm 2 mps 649 mmHg 80%
    03:00 +8°C° 0.1 mm 3 mps 648 mmHg 81%
    04:00 +8°C° 0.1 mm 3 mps 648 mmHg 82%
    05:00 +8°C° 0.5 mm 3 mps 648 mmHg 81%
    06:00 +8°C° 0.5 mm 3 mps 647 mmHg 80%
    07:00 +8°C° 0.5 mm 3 mps 647 mmHg 79%
    08:00 +9°C° 0.5 mm 3 mps 647 mmHg 76%
    09:00 +10°C° 0.5 mm 3 mps 647 mmHg 72%
    10:00 +12°C° 0.5 mm 3 mps 647 mmHg 69%
    11:00 +12°C° 0.2 mm 3 mps 647 mmHg 65%
    12:00 +12°C° 0.2 mm 3 mps 647 mmHg 61%
    13:00 +13°C° 0.2 mm 3 mps 646 mmHg 57%
    14:00 +12°C° 0.4 mm 3 mps 646 mmHg 61%
    15:00 +11°C° 0.4 mm 3 mps 645 mmHg 65%
    16:00 +10°C° 0.4 mm 2 mps 645 mmHg 70%
    17:00 +9°C° 0.4 mm 2 mps 644 mmHg 74%
    18:00 +8°C° 0.4 mm 2 mps 644 mmHg 78%
    19:00 +7°C° 0.4 mm 2 mps 644 mmHg 83%
    20:00 +7°C° 0.2 mm 2 mps 644 mmHg 84%
    21:00 +6°C° 0.2 mm 2 mps 643 mmHg 84%
    22:00 +6°C° 0.2 mm 2 mps 643 mmHg 85%
    23:00 +6°C° 0.5 mm 2 mps 643 mmHg 85%

    24 October, Tuesday

    Time Temperature Precipitation Wind Pressure Humidity
    00:00 +6°C° 0.5 mm 2 mps 643 mmHg 85%
    01:00 +6°C° 0.5 mm 2 mps 643 mmHg 85%
    02:00 +5°C° 0.4 mm 3 mps 642 mmHg 84%
    03:00 +4°C° 0.4 mm 3 mps 642 mmHg 83%
    04:00 +4°C° 0.4 mm 3 mps 642 mmHg 83%
    05:00 +4°C° 0.2 mm 3 mps 642 mmHg 82%
    06:00 +4°C° 0.2 mm 3 mps 642 mmHg 81%
    07:00 +4°C° 0.2 mm 3 mps 642 mmHg 80%
    08:00 +5°C° 0.1 mm 3 mps 643 mmHg 74%
    09:00 +6°C° 0.1 mm 4 mps 643 mmHg 67%
    10:00 +7°C° 0.1 mm 4 mps 643 mmHg 61%
    11:00 +8°C° 0.2 mm 4 mps 643 mmHg 60%
    12:00 +8°C° 0.2 mm 4 mps 643 mmHg 58%
    13:00 +8°C° 0.2 mm 4 mps 643 mmHg 57%
    14:00 +8°C° 0.1 mm 4 mps 643 mmHg 58%
    15:00 +7°C° 0.1 mm 4 mps 643 mmHg 60%
    16:00 +7°C° 0.1 mm 4 mps 643 mmHg 61%
    17:00 +6°C° 0 mm 4 mps 643 mmHg 64%
    18:00 +6°C° 0 mm 4 mps 643 mmHg 67%
    19:00 +5°C° 0 mm 4 mps 643 mmHg 69%
    20:00 +5°C° 0.2 mm 4 mps 643 mmHg 71%
    21:00 +4°C° 0.2 mm 3 mps 643 mmHg 74%
    22:00 +4°C° 0.2 mm 3 mps 644 mmHg 76%
    23:00 +4°C° 0.2 mm 3 mps 644 mmHg 77%

    25 October, Wednesday

    Time Temperature Precipitation Wind Pressure Humidity
    00:00 +4°C° 0.2 mm 3 mps 644 mmHg 78%
    01:00 +4°C° 0.2 mm 3 mps 644 mmHg 79%
    02:00 +4°C° 0.1 mm 3 mps 644 mmHg 79%
    03:00 +4°C° 0.1 mm 3 mps 644 mmHg 79%
    04:00 +4°C° 0.1 mm 3 mps 645 mmHg 79%
    05:00 +4°C° 0 mm 3 mps 645 mmHg 79%
    06:00 +4°C° 0 mm 3 mps 645 mmHg 79%
    07:00 +4°C° 0 mm 3 mps 646 mmHg 79%
    08:00 +7°C° 0 mm 3 mps 647 mmHg 73%
    09:00 +8°C° 0 mm 3 mps 647 mmHg 68%
    10:00 +8°C° 0 mm 4 mps 648 mmHg 63%
    11:00 +10°C° 0 mm 3 mps 648 mmHg 61%
    12:00 +10°C° 0 mm 3 mps 649 mmHg 60%
    13:00 +10°C° 0 mm 3 mps 649 mmHg 58%
    14:00 +10°C° 0 mm 3 mps 649 mmHg 60%
    15:00 +9°C° 0 mm 3 mps 650 mmHg 62%
    16:00 +9°C° 0 mm 3 mps 650 mmHg 63%
    17:00 +8°C° 0 mm 3 mps 650 mmHg 67%
    18:00 +7°C° 0 mm 3 mps 650 mmHg 70%
    19:00 +5°C° 0 mm 3 mps 651 mmHg 73%
    20:00 +5°C° 0 mm 3 mps 651 mmHg 74%
    21:00 +4°C° 0 mm 3 mps 651 mmHg 76%
    22:00 +4°C° 0 mm 3 mps 652 mmHg 77%
    23:00 +3°C° 0 mm 3 mps 652 mmHg 78%
    Show more